Rochester/St. Mary\'s Hospita, MN

3:20 PM CST on December 09, 2019 (GMT -0600)
Rochester/St. Mary\'s Hospita

Weather History for K9MN - October, 2019

Change the Weather History Date:

Sunday, October 20, 2019

  Actual Average (WUND) Record (WUND)
Temperature  
Mean Temperature 52 °F -  
Max Temperature 66 °F - - (-1)
Min Temperature 39 °F - - (-1)
Degree Days  
Heating Degree Days 12    
Growing Degree Days 2 (Base 50)    
Moisture  
Dew Point 41 °F    
Average Humidity 69    
Maximum Humidity 100    
Minimum Humidity 31    
Precipitation  
Precipitation 0.00 in - - ()
Sea Level Pressure  
Sea Level Pressure 29.83 in    
Wind  
Wind Speed 3 mph (ESE)    
Max Wind Speed 10 mph    
Max Gust Speed 16 mph    
Visibility 10 miles    
Events      
Averages and records for this station are not official NWS values.
T = Trace of Precipitation, MM = Missing Value Source: NWS Daily Summary

Daily Weather History Graph

Daily Weather History Graph

Search for Another Location

Airport or City:

Astronomy

Oct. 20, 2019 Rise Set
Actual Time 7:30 AM CDT 6:18 PM CDT
Civil Twilight 7:01 AM CDT 6:47 PM CDT
Nautical Twilight 6:27 AM CDT 7:20 PM CDT
Astronomical Twilight 5:54 AM CDT 7:54 PM CDT
Moon 11:19 PM CDT (10/20) 2:07 PM CDT (10/20)
Length of Visible Light 11h 46m
Length of Day
10h 47m
Waning Gibbous, 59% of the Moon is Illuminated
Oct 20
Waning Gibbous
Oct 21
Last Quarter
Oct 27
New
Nov 4
First Quarter
Nov 12
Full

Hourly Weather History & Observations

Time (CDT) Temp. Windchill Dew Point Humidity Pressure Visibility Wind Dir Wind Speed Gust Speed Precip Events Conditions
12:15 AM 48.4 °F - 45.5 °F 90% 29.78 in 10.0 mi Calm Calm - N/A   Clear
12:35 AM 48.0 °F - 45.5 °F 91% 29.78 in 10.0 mi Calm Calm - N/A   Clear
12:55 AM 47.8 °F - 45.5 °F 92% 29.78 in 10.0 mi Calm Calm - N/A   Clear
12:56 AM 47.8 °F - 45.5 °F 92% 29.78 in 10.0 mi SW 3.5 mph - N/A   Clear
1:15 AM 47.7 °F - 45.5 °F 92% 29.79 in 10.0 mi WSW 3.5 mph - N/A   Clear
1:16 AM 47.7 °F - 45.5 °F 92% 29.79 in 10.0 mi Calm Calm - N/A   Clear
1:35 AM 46.8 °F - 44.6 °F 92% 29.79 in 10.0 mi Calm Calm - N/A   Clear
1:55 AM 46.6 °F - 44.6 °F 93% 29.80 in 10.0 mi Calm Calm - N/A   Clear
2:15 AM 45.7 °F - 43.7 °F 93% 29.80 in 10.0 mi Calm Calm - N/A   Clear
2:16 AM 45.7 °F - 43.7 °F 93% 29.80 in 10.0 mi Calm Calm - N/A   Clear
2:35 AM 44.6 °F - 43.5 °F 96% 29.80 in 10.0 mi Calm Calm - N/A   Clear
2:36 AM 44.4 °F - 43.3 °F 96% 29.80 in 10.0 mi Calm Calm - N/A   Clear
2:55 AM 44.6 °F 42.2 °F 44.4 °F 99% 29.78 in 10.0 mi ESE 4.6 mph - N/A   Clear
3:15 AM 43.3 °F 40.7 °F 43.2 °F 99% 29.78 in 10.0 mi ESE 4.6 mph - N/A   Clear
3:35 AM 42.8 °F 41.1 °F 42.8 °F 100% 29.78 in 10.0 mi ESE 3.5 mph - N/A   Clear
3:36 AM 42.8 °F 41.1 °F 42.8 °F 100% 29.78 in 10.0 mi SE 3.5 mph - N/A   Clear
3:55 AM 42.8 °F - 43.0 °F 100% 29.80 in 10.0 mi Calm Calm - N/A   Clear
3:56 AM 43.0 °F - 43.2 °F 100% 29.80 in 10.0 mi Calm Calm - N/A   Clear
4:15 AM 43.2 °F - 43.0 °F 99% 29.80 in 10.0 mi Calm Calm - N/A   Clear
4:35 AM 42.6 °F - 41.9 °F 97% 29.81 in 10.0 mi Calm Calm - N/A   Scattered Clouds
4:55 AM 42.8 °F - 41.5 °F 95% 29.81 in 10.0 mi Calm Calm - N/A   Mostly Cloudy
4:56 AM 42.6 °F - 41.5 °F 96% 29.81 in 10.0 mi Calm Calm - N/A   Mostly Cloudy
5:15 AM 41.2 °F - 40.3 °F 97% 29.82 in 10.0 mi Calm Calm - N/A   Scattered Clouds
5:16 AM 41.2 °F - 40.3 °F 97% 29.82 in 10.0 mi Calm Calm - N/A   Scattered Clouds
5:35 AM 40.1 °F - 39.2 °F 97% 29.83 in 10.0 mi Calm Calm - N/A   Clear
5:55 AM 40.5 °F - 39.9 °F 98% 29.83 in 10.0 mi Calm Calm - N/A   Clear
6:16 AM 40.3 °F - 39.9 °F 99% 29.83 in 10.0 mi Calm Calm - N/A   Clear
6:35 AM 39.6 °F - 39.2 °F 99% 29.84 in 10.0 mi Calm Calm - N/A   Clear
6:36 AM 39.6 °F - 39.2 °F 99% 29.84 in 10.0 mi Calm Calm - N/A   Clear
6:55 AM 40.1 °F 38.0 °F 39.7 °F 99% 29.84 in 10.0 mi SE 3.5 mph - N/A   Clear
7:15 AM 40.1 °F 38.0 °F 39.2 °F 97% 29.84 in 10.0 mi SE 3.5 mph - N/A   Clear
7:36 AM 39.4 °F - 38.3 °F 96% 29.84 in 10.0 mi Calm Calm - N/A   Clear
7:55 AM 39.7 °F - 38.1 °F 94% 29.85 in 10.0 mi Calm Calm - N/A   Clear
7:56 AM 39.7 °F - 38.1 °F 94% 29.85 in 10.0 mi Calm Calm - N/A   Clear
8:15 AM 40.1 °F - 37.8 °F 91% 29.85 in 10.0 mi Calm Calm - N/A   Clear
8:35 AM 41.2 °F - 38.5 °F 90% 29.86 in 10.0 mi Calm Calm - N/A   Clear
8:56 AM 43.2 °F - 39.2 °F 86% 29.87 in 10.0 mi Calm Calm - N/A   Clear
9:16 AM 45.5 °F - 39.4 °F 79% 29.88 in 10.0 mi Calm Calm - N/A   Clear
9:35 AM 47.3 °F - 39.6 °F 74% 29.88 in 10.0 mi Calm Calm - N/A   Clear
9:55 AM 49.1 °F - 38.7 °F 67% 29.88 in 10.0 mi Calm Calm - N/A   Clear
10:15 AM 50.7 °F - 39.7 °F 66% 29.88 in 10.0 mi ESE 4.6 mph - N/A   Clear
10:16 AM 50.9 °F - 39.7 °F 66% 29.88 in 10.0 mi SE 4.6 mph - N/A   Clear
10:35 AM 52.9 °F - 40.3 °F 62% 29.87 in 10.0 mi ESE 5.8 mph - N/A   Clear
10:55 AM 55.6 °F - 40.8 °F 58% 29.87 in 10.0 mi SE 6.9 mph - N/A   Clear
11:15 AM 58.3 °F - 34.7 °F 41% 29.88 in 10.0 mi ESE 8.1 mph - N/A   Clear
11:35 AM 59.5 °F - 34.0 °F 38% 29.88 in 10.0 mi ESE 9.2 mph - N/A   Clear
11:36 AM 59.7 °F - 34.2 °F 38% 29.88 in 10.0 mi ESE 9.2 mph - N/A   Clear
11:55 AM 60.8 °F - 34.5 °F 37% 29.88 in 10.0 mi ESE 4.6 mph - N/A   Clear
12:15 PM 61.9 °F - 34.2 °F 35% 29.88 in 10.0 mi SE 10.4 mph - N/A   Clear
12:35 PM 62.4 °F - 35.6 °F 37% 29.88 in 10.0 mi East 9.2 mph - N/A   Clear
12:36 PM 62.6 °F - 35.8 °F 37% 29.88 in 10.0 mi East 10.4 mph - N/A   Clear
12:55 PM 62.8 °F - 35.4 °F 36% 29.87 in 10.0 mi SE 10.4 mph - N/A   Clear
12:56 PM 62.8 °F - 35.2 °F 36% 29.87 in 10.0 mi ESE 9.2 mph - N/A   Clear
1:15 PM 62.8 °F - 35.8 °F 37% 29.87 in 10.0 mi SE 8.1 mph 16.1 mph N/A   Clear
1:35 PM 64.0 °F - 35.8 °F 35% 29.87 in 10.0 mi SE 9.2 mph - N/A   Clear
1:55 PM 64.4 °F - 35.8 °F 35% 29.86 in 10.0 mi ESE 5.8 mph - N/A   Clear
1:56 PM 64.4 °F - 35.8 °F 35% 29.86 in 10.0 mi ESE 4.6 mph - N/A   Clear
2:15 PM 64.4 °F - 36.5 °F 36% 29.85 in 10.0 mi SE 10.4 mph - N/A   Clear
2:16 PM 64.4 °F - 36.5 °F 36% 29.85 in 10.0 mi SE 9.2 mph - N/A   Clear
2:35 PM 65.5 °F - 36.7 °F 35% 29.84 in 10.0 mi East 4.6 mph - N/A   Clear
2:55 PM 66.2 °F - 34.9 °F 31% 29.84 in 10.0 mi SE 5.8 mph - N/A   Clear
3:15 PM 64.9 °F - 34.3 °F 32% 29.85 in 10.0 mi ESE 8.1 mph - N/A   Clear
3:16 PM 64.8 °F - 34.3 °F 32% 29.85 in 10.0 mi ESE 8.1 mph - N/A   Clear
3:35 PM 64.6 °F - 35.1 °F 33% 29.85 in 10.0 mi ESE 9.2 mph - N/A   Clear
3:36 PM 64.6 °F - 35.1 °F 33% 29.85 in 10.0 mi ESE 8.1 mph - N/A   Clear
3:55 PM 64.4 °F - 36.3 °F 35% 29.85 in 10.0 mi ESE 8.1 mph - N/A   Clear
4:15 PM 64.2 °F - 37.6 °F 37% 29.84 in 10.0 mi ESE 5.8 mph - N/A   Clear
4:35 PM 63.5 °F - 37.8 °F 39% 29.84 in 10.0 mi ESE 6.9 mph - N/A   Clear
4:36 PM 63.5 °F - 37.8 °F 39% 29.84 in 10.0 mi ESE 5.8 mph - N/A   Clear
4:55 PM 63.0 °F - 37.9 °F 40% 29.85 in 10.0 mi ESE 6.9 mph - N/A   Clear
5:15 PM 62.6 °F - 38.1 °F 40% 29.84 in 10.0 mi East 6.9 mph - N/A   Clear
5:35 PM 61.9 °F - 39.6 °F 44% 29.83 in 10.0 mi ESE 8.1 mph - N/A   Clear
5:36 PM 61.9 °F - 39.6 °F 44% 29.83 in 10.0 mi East 6.9 mph - N/A   Clear
5:55 PM 61.3 °F - 40.8 °F 47% 29.82 in 10.0 mi East 6.9 mph - N/A   Clear
5:56 PM 61.2 °F - 40.8 °F 47% 29.82 in 10.0 mi East 10.4 mph - N/A   Clear
6:15 PM 60.4 °F - 41.4 °F 49% 29.82 in 10.0 mi East 8.1 mph - N/A   Clear
6:35 PM 59.5 °F - 41.9 °F 52% 29.83 in 10.0 mi ESE 8.1 mph - N/A   Clear
6:55 PM 58.6 °F - 42.3 °F 55% 29.83 in 10.0 mi ESE 6.9 mph - N/A   Clear
6:56 PM 58.6 °F - 42.3 °F 55% 29.83 in 10.0 mi ESE 6.9 mph - N/A   Clear
7:15 PM 57.7 °F - 43.0 °F 58% 29.83 in 10.0 mi ESE 6.9 mph - N/A   Clear
7:16 PM 57.6 °F - 43.0 °F 58% 29.83 in 10.0 mi East 5.8 mph - N/A   Clear
7:35 PM 56.7 °F - 43.7 °F 62% 29.84 in 10.0 mi ESE 6.9 mph - N/A   Clear
7:55 PM 55.9 °F - 44.4 °F 65% 29.84 in 10.0 mi ESE 4.6 mph - N/A   Clear
8:15 PM 55.0 °F - 45.5 °F 70% 29.83 in 10.0 mi ESE 9.2 mph - N/A   Clear
8:16 PM 55.0 °F - 45.5 °F 70% 29.84 in 10.0 mi ESE 9.2 mph - N/A   Clear
8:35 PM 54.5 °F - 45.9 °F 73% 29.84 in 10.0 mi ESE 8.1 mph - N/A   Clear
8:36 PM 54.3 °F - 45.9 °F 73% 29.84 in 10.0 mi ESE 6.9 mph - N/A   Clear
8:55 PM 54.0 °F - 46.4 °F 76% 29.83 in 10.0 mi ESE 6.9 mph - N/A   Clear
9:15 PM 53.8 °F - 46.2 °F 76% 29.83 in 10.0 mi ESE 5.8 mph - N/A   Clear
9:35 PM 53.6 °F - 45.7 °F 75% 29.83 in 10.0 mi ESE 8.1 mph - N/A   Clear
9:36 PM 53.6 °F - 45.7 °F 75% 29.83 in 10.0 mi ESE 8.1 mph - N/A   Clear
9:55 PM 53.6 °F - 45.5 °F 74% 29.83 in 10.0 mi ESE 6.9 mph - N/A   Clear
9:56 PM 53.6 °F - 45.5 °F 74% 29.83 in 10.0 mi ESE 5.8 mph - N/A   Clear
10:15 PM 53.6 °F - 45.5 °F 74% 29.83 in 10.0 mi ESE 5.8 mph - N/A   Clear
10:35 PM 52.7 °F - 45.5 °F 76% 29.81 in 10.0 mi ESE 3.5 mph - N/A   Clear
10:55 PM 53.1 °F - 45.9 °F 77% 29.81 in 10.0 mi East 5.8 mph - N/A   Clear
10:56 PM 53.1 °F - 45.9 °F 77% 29.81 in 10.0 mi East 5.8 mph - N/A   Clear
11:15 PM 52.7 °F - 46.0 °F 78% 29.80 in 10.0 mi East 4.6 mph - N/A   Clear
11:16 PM 52.7 °F - 46.0 °F 78% 29.80 in 10.0 mi East 5.8 mph - N/A   Clear
11:35 PM 52.3 °F - 46.4 °F 80% 29.79 in 10.0 mi East 8.1 mph - N/A   Clear
11:55 PM 52.2 °F - 45.9 °F 79% 29.78 in 10.0 mi East 8.1 mph - N/A   Scattered Clouds